• Currently

    Reported at Minneapolis, Minneapolis-St. Paul International Airport, MN
    5:53 AM CST SAT JUL 22 2017
  • 72°F22°C
  • Overcast
    Overcast
  • Feels Like:72°F22°CDew Point:66°F19°CHumidity:83% Winds:N 6 mph 10 kph
    Pressure:29.83 in1010 hPaVisibility:10.00 miles16090.00 meters
Time Weather Temp Dew Point
Humidity Winds Visibility Pressure Precipitation
1 hr 24 hr
Tuesday, July 18
23:53 23:53 Cloudy With Heavy Thunderstorms Cloudy With Heavy Thunderstorms 69°F21°C 67°F19°C 93% SE 7 mphSE 11 kph 4.0 miles6.4 km 30.03 in1017 hPa 0.48 in309.68 mm --
23:33 23:33 Cloudy With Thunderstorms Cloudy With Thunderstorms 69°F21°C 67°F19°C 93% N 6 mphN 9 kph 5.0 miles8.0 km 30.03 in1017 hPa 0.35 in225.81 mm --
23:15 23:15 Cloudy With Light Thunderstorms Cloudy With Light Thunderstorms 69°F21°C 67°F19°C 93% NNE 14 mphNNE 22 kph 4.0 miles6.4 km 30.03 in1017 hPa 0.34 in219.35 mm --
23:06 23:06 Cloudy With Nearby Thunderstorms Cloudy With Nearby Thunderstorms 69°F21°C 67°F19°C 93% NE 16 mphNE 26 kph 1.5 miles2.4 km 30 in1016 hPa 0.31 in200.00 mm --
22:58 22:58 Cloudy With Nearby Thunderstorms Cloudy With Nearby Thunderstorms 70°F21°C 67°F19°C 90% NNE 16 mphNNE 26 kph 2.0 miles3.2 km 30.03 in1017 hPa 0.12 in77.42 mm --
22:53 22:53 Cloudy With Thunderstorms Cloudy With Thunderstorms 70°F21°C 67°F19°C 90% NW 12 mphNW 19 kph 4.0 miles6.4 km 30.03 in1017 hPa 0.09 in58.06 mm --
22:21 22:21 Windy With Storms Likely Windy With Storms Likely 72°F22°C 66°F19°C 82% NE 26 mphNE 43 kph 10.0 miles16.1 km 30 in1016 hPa 0.00 in0.03 mm --
21:57 21:57 Cloudy With Nearby Thunderstorms Cloudy With Nearby Thunderstorms 76°F24°C 64°F18°C 67% NE 16 mphNE 26 kph 10.0 miles16.1 km 29.97 in1015 hPa 0.00 in0.00 mm --
21:52 21:52 Cloudy Cloudy 77°F25°C 64°F18°C 64% NNE 18 mphNNE 30 kph 10.0 miles16.1 km 29.97 in1015 hPa 0.00 in0.00 mm --
21:51 21:51 Mostly Cloudy Mostly Cloudy 77°F25°C 64°F18°C 65% NNE 17 mphNNE 28 kph 10.0 miles16.1 km 29.97 in1015 hPa 0.00 in0.00 mm --
21:40 21:40 Mostly Cloudy Mostly Cloudy 81°F27°C 68°F20°C 65% NNE 28 mphNNE 44 kph 10.0 miles16.1 km 29.97 in1015 hPa 0.00 in0.00 mm --
21:38 21:38 Mostly Cloudy Mostly Cloudy 83°F28°C 70°F21°C 65% N 28 mphN 44 kph 10.0 miles16.1 km 29.94 in1014 hPa 0.00 in0.00 mm --
20:53 20:53 Mostly Cloudy Mostly Cloudy 84°F29°C 72°F22°C 67% SSE 8 mphSSE 13 kph 10.0 miles16.1 km 29.91 in1013 hPa 0.00 in0.00 mm --
19:53 19:53 Partly Cloudy Partly Cloudy 87°F31°C 72°F22°C 61% SSE 13 mphSSE 20 kph 10.0 miles16.1 km 29.88 in1012 hPa 0.00 in0.00 mm --
18:53 18:53 Mostly Sunny Mostly Sunny 88°F31°C 72°F22°C 59% S 15 mphS 24 kph 10.0 miles16.1 km 29.88 in1012 hPa 0.00 in0.00 mm --
17:53 17:53 Partly Cloudy Partly Cloudy 89°F32°C 72°F22°C 57% S 17 mphS 28 kph 10.0 miles16.1 km 29.88 in1012 hPa 0.00 in0.00 mm --
16:53 16:53 Mostly Sunny Mostly Sunny 90°F32°C 71°F22°C 54% S 17 mphS 28 kph 10.0 miles16.1 km 29.88 in1012 hPa 0.00 in0.00 mm --
15:53 15:53 Mostly Sunny Mostly Sunny 90°F32°C 71°F22°C 54% S 15 mphS 24 kph 10.0 miles16.1 km 29.91 in1013 hPa 0.00 in0.00 mm --
14:53 14:53 Mostly Sunny Mostly Sunny 91°F33°C 70°F21°C 50% S 12 mphS 19 kph 10.0 miles16.1 km 29.91 in1013 hPa 0.00 in0.00 mm --
13:53 13:53 Sunny Sunny 89°F32°C 68°F20°C 50% S 15 mphS 24 kph 10.0 miles16.1 km 29.91 in1013 hPa 0.00 in0.00 mm --
12:53 12:53 Sunny Sunny 87°F31°C 67°F19°C 51% S 14 mphS 22 kph 10.0 miles16.1 km 29.91 in1013 hPa 0.00 in0.00 mm --
11:53 11:53 Sunny Sunny 84°F29°C 65°F18°C 53% S 14 mphS 22 kph 10.0 miles16.1 km 29.94 in1014 hPa 0.00 in0.00 mm --
10:53 10:53 Mostly Sunny Mostly Sunny 82°F28°C 65°F18°C 56% S 13 mphS 20 kph 10.0 miles16.1 km 29.94 in1014 hPa 0.00 in0.00 mm --
09:53 09:53 Mostly Cloudy Mostly Cloudy 78°F26°C 65°F18°C 64% S 12 mphS 19 kph 10.0 miles16.1 km 29.97 in1015 hPa 0.00 in0.00 mm --
08:53 08:53 Mostly Cloudy Mostly Cloudy 76°F24°C 65°F18°C 69% S 12 mphS 19 kph 10.0 miles16.1 km 29.97 in1015 hPa 0.00 in0.00 mm --
07:53 07:53 Mostly Cloudy Mostly Cloudy 74°F23°C 65°F18°C 74% S 8 mphS 13 kph 10.0 miles16.1 km 29.97 in1015 hPa 0.00 in0.00 mm --
06:53 06:53 Partly Cloudy Partly Cloudy 71°F22°C 63°F17°C 76% S 12 mphS 19 kph 10.0 miles16.1 km 29.97 in1015 hPa 0.00 in0.00 mm --
05:53 05:53 Sunny Sunny 69°F21°C 62°F17°C 78% S 9 mphS 15 kph 10.0 miles16.1 km 29.97 in1015 hPa 0.00 in0.00 mm --
04:53 04:53 Clear Clear 69°F21°C 61°F16°C 76% SSE 8 mphSSE 13 kph 10.0 miles16.1 km 30 in1016 hPa 0.00 in0.00 mm --
03:53 03:53 Clear Clear 68°F20°C 61°F16°C 78% SE 6 mphSE 9 kph 10.0 miles16.1 km 29.97 in1015 hPa 0.00 in0.00 mm --
02:53 02:53 Clear Clear 69°F21°C 61°F16°C 76% SSE 6 mphSSE 9 kph 10.0 miles16.1 km 29.97 in1015 hPa 0.00 in0.00 mm --
01:53 01:53 Clear Clear 71°F22°C 61°F16°C 71% SE 10 mphSE 17 kph 10.0 miles16.1 km 29.97 in1015 hPa 0.00 in0.00 mm --
00:53 00:53 Clear Clear 72°F22°C 62°F17°C 71% SE 10 mphSE 17 kph 10.0 miles16.1 km 30 in1016 hPa 0.00 in0.00 mm --